Location: Unspecified
(44.4377°N, 88.0525°W)
Time: 21:27:32
(UTC-05:00)

CZ-3 Stage 3 - Visible Passes

Search period start: 30 April 2017 00:00
Search period end: 10 May 2017 00:00
Orbit: 398 x 34800 km, 30.7° (Epoch: 29 April)

Date Brightness Start Highest point End Pass type
(mag) Time Alt. Az. Time Alt. Az. Time Alt. Az.
30 Apr 9.3 01:25:35 10° WNW 02:57:31 28° W 06:19:21 10° W visible
30 Apr 8.3 21:24:33 10° W 23:11:04 67° SW 06:18:25 10° SW visible
01 May 7.5 17:45:08 10° SSW 23:18:50 55° SE 02:59:05 10° SSE visible
02 May 7.2 16:50:21 10° ENE 20:56:49 20° E 22:40:02 10° ESE visible
03 May 9.3 01:16:04 10° WNW 02:46:45 27° W 06:05:56 10° W visible
03 May 8.3 21:15:18 10° W 22:59:29 67° SW 06:07:01 10° SW visible
04 May 7.5 17:35:51 10° SW 23:06:42 55° SE 02:49:13 10° SSE visible
05 May 7.1 14:13:42 10° ESE 20:47:15 19° E 22:29:13 10° ESE visible
06 May 9.3 01:06:31 10° WNW 02:35:57 27° W 05:52:29 10° W visible
06 May 8.3 21:05:59 10° W 22:47:52 67° SW 05:55:28 10° SW visible
07 May 7.5 17:26:31 10° SW 22:54:31 54° SE 02:39:15 10° SSE visible
08 May 7.1 16:52:54 10° ENE 20:37:37 19° E 22:18:13 10° ESE visible
09 May 9.3 00:56:56 10° WNW 02:25:06 27° W 05:38:58 10° W visible
